Group_ship,Cruise,JD_GMT,Date_DDMMYYYY,TIME_HH:MM:SS,Lat_dec_degree,Long_dec_degree,xCO2eq_ppm,xCO2a_ppm,Pres_Equi_hPa,Pres_sealevel_hPa,EqTemp_C,SST(TSG)_C,Sal(TSG)_Permil,Water_flow_l/min,Gasflow_IR_ml/min,Temp_IR_C,Pres_IR_hPa,Ship_heading_true_degree,Ship_speed_knot,Wind_dir_rel_degree,Wind_speed_rel_m/s,fCO2W@SST_uatm,Qcflag_water,fCO2a_uatm,Qcflag_air,dfCO2_uatm,Fluoro_ug/l,Wind_speed_true_m/s,Wind_dir_true_degree,Air_temp_C,Oxygen
AOML_Explorer,Ex0745BB,309.317,05112007,7:36:58,40.226,-73.551,433.09,-9.00,1012.81,1010.40,15.77,15.49,32.113,1.41,100.69,29.96,1012.81,135.60,22.80,23.00,6.18,418.88,2,-9.00,9,-9.00,0.54,6.46,294.50,11.36,259.79
AOML_Explorer,Ex0745BB,309.319,05112007,7:39:31,40.214,-73.537,426.12,-9.00,1012.81,1010.40,15.79,15.52,32.218,1.40,101.03,29.96,1012.81,135.80,22.90,10.00,6.18,412.45,2,-9.00,9,-9.00,0.53,5.78,306.17,11.43,255.03
AOML_Explorer,Ex0745BB,309.321,05112007,7:42:04,40.202,-73.522,425.92,-9.00,1012.85,1010.50,15.91,15.61,32.256,1.38,100.69,29.97,1012.85,135.80,22.80,15.00,5.66,411.77,2,-9.00,9,-9.00,0.47,6.43,303.38,11.46,255.32
AOML_Explorer,Ex0745BB,309.323,05112007,7:44:37,40.191,-73.507,427.74,-9.00,1012.68,1010.50,15.95,15.77,32.416,1.43,100.75,29.97,1012.68,136.00,22.80,19.00,5.15,415.33,2,-9.00,9,-9.00,0.30,7.05,302.71,11.53,254.44
AOML_Explorer,Ex0745BB,309.324,05112007,7:47:10,40.179,-73.493,422.45,-9.00,1012.78,1010.40,16.06,15.86,32.453,1.40,100.77,29.98,1012.78,135.80,22.90,357.00,6.18,409.83,2,-9.00,9,-9.00,0.29,5.59,319.78,11.58,254.22
AOML_Explorer,Ex0745BB,309.326,05112007,7:49:43,40.167,-73.478,413.10,-9.00,1012.64,1010.40,16.19,15.67,32.449,1.40,100.61,29.99,1012.64,135.90,22.80,356.00,6.18,395.58,2,-9.00,9,-9.00,0.29,5.59,321.11,11.56,252.98
AOML_Explorer,Ex0745BB,309.328,05112007,7:52:16,40.156,-73.463,407.28,-9.00,1012.63,1010.30,16.19,15.71,32.360,1.37,100.44,29.99,1012.63,135.40,22.80,357.00,5.15,390.52,2,-9.00,9,-9.00,0.28,6.59,318.45,11.75,253.45
AOML_Explorer,Ex0745BB,309.330,05112007,7:54:49,40.144,-73.449,406.06,-9.00,1012.57,1010.20,16.08,15.66,32.417,1.41,100.52,30.00,1012.57,135.80,22.90,2.00,5.15,390.39,2,-9.00,9,-9.00,0.28,6.61,314.95,11.71,253.58
AOML_Explorer,Ex0745BB,309.332,05112007,7:57:22,40.133,-73.434,404.58,-9.00,1012.49,1010.00,16.10,15.57,32.427,1.40,100.55,30.00,1012.49,135.60,22.90,350.00,5.15,387.14,2,-9.00,9,-9.00,0.29,6.75,323.74,11.78,253.30
AOML_Explorer,Ex0745BB,309.333,05112007,7:59:55,40.121,-73.419,404.08,-9.00,1012.47,1010.10,16.04,15.61,32.455,1.43,100.55,30.00,1012.47,135.80,22.70,348.00,5.66,388.30,2,-9.00,9,-9.00,0.27,6.29,327.58,11.86,253.49
AOML_Explorer,Ex0745BB,309.348,05112007,8:21:40,40.022,-73.295,403.16,-9.00,1012.58,1010.50,15.89,15.52,32.600,1.42,100.44,30.08,1012.58,136.20,22.90,38.00,6.18,388.43,2,-9.00,9,-9.00,0.31,7.79,287.67,11.36,255.26
AOML_Explorer,Ex0745BB,309.350,05112007,8:24:13,40.010,-73.280,403.25,-9.00,1012.50,1010.40,15.93,15.51,32.627,1.41,100.42,30.08,1012.50,136.50,22.90,40.00,7.72,387.69,2,-9.00,9,-9.00,0.23,7.55,276.61,11.36,254.93
AOML_Explorer,Ex0745BB,309.352,05112007,8:26:46,39.998,-73.266,403.12,-9.00,1012.52,1010.40,15.93,15.36,32.691,1.36,100.49,30.09,1012.52,136.10,22.90,44.00,7.21,385.10,2,-9.00,9,-9.00,0.26,8.10,279.19,11.39,256.26
AOML_Explorer,Ex0745BB,309.354,05112007,8:29:19,39.987,-73.251,402.81,-9.00,1012.49,1010.60,15.89,15.24,32.773,1.44,100.33,30.09,1012.49,136.50,22.80,47.00,9.26,383.71,2,-9.00,9,-9.00,0.26,8.55,264.80,11.43,259.29
AOML_Explorer,Ex0745BB,309.355,05112007,8:31:52,39.975,-73.237,401.90,-9.00,1012.57,1010.60,15.76,15.23,32.775,1.42,100.44,30.09,1012.57,135.60,22.70,56.00,9.78,384.88,2,-9.00,9,-9.00,0.27,10.13,263.11,11.32,259.43
AOML_Explorer,Ex0745BB,309.357,05112007,8:34:25,39.964,-73.222,399.23,-9.00,1012.51,1010.50,15.70,15.23,32.773,1.39,100.63,30.09,1012.51,135.70,22.70,64.00,9.78,383.16,2,-9.00,9,-9.00,0.27,11.43,265.71,11.31,259.68
AOML_Explorer,Ex0745BB,309.359,05112007,8:36:58,39.952,-73.208,397.85,-9.00,1012.62,1010.50,15.68,15.22,32.778,1.41,100.32,30.09,1012.62,135.10,22.70,51.00,7.72,381.89,2,-9.00,9,-9.00,0.27,9.05,273.74,11.31,259.54
AOML_Explorer,Ex0745BB,309.361,05112007,8:39:31,39.941,-73.193,396.56,-9.00,1012.63,1010.60,15.68,15.20,32.759,1.40,100.48,30.09,1012.63,135.10,22.70,47.00,7.72,380.45,2,-9.00,9,-9.00,0.26,8.56,273.96,11.31,258.50
AOML_Explorer,Ex0745BB,309.363,05112007,8:42:04,39.929,-73.178,396.15,-9.00,1012.71,1010.60,15.66,15.19,32.751,1.40,100.45,30.09,1012.71,134.80,22.80,46.00,7.72,380.18,2,-9.00,9,-9.00,0.25,8.46,273.77,11.33,257.89
AOML_Explorer,Ex0745BB,309.364,05112007,8:44:37,39.918,-73.164,396.82,-9.00,1012.65,1010.70,15.65,15.20,32.745,1.39,100.59,30.09,1012.65,135.30,22.70,43.00,6.69,381.19,2,-9.00,9,-9.00,0.23,8.17,281.38,11.35,257.22
AOML_Explorer,Ex0745BB,309.366,05112007,8:47:10,39.907,-73.149,397.75,-9.00,1012.71,1010.60,15.65,15.19,32.775,1.40,100.42,30.09,1012.71,135.50,22.90,49.00,7.72,381.96,2,-9.00,9,-9.00,0.29,8.89,274.39,11.32,258.02
AOML_Explorer,Ex0745BB,309.368,05112007,8:49:43,39.895,-73.134,398.58,-9.00,1012.73,1010.50,15.67,15.31,32.734,1.44,100.50,30.09,1012.73,135.00,22.80,47.00,7.21,384.48,2,-9.00,9,-9.00,0.26,8.59,277.12,11.38,260.85
AOML_Explorer,Ex0745BB,309.370,05112007,8:52:16,39.884,-73.119,397.49,-9.00,1012.58,1010.70,15.68,15.55,32.748,1.41,100.69,30.08,1012.58,134.80,22.80,48.00,8.75,386.94,2,-9.00,9,-9.00,0.20,8.80,266.78,11.45,259.57
AOML_Explorer,Ex0745BB,309.371,05112007,8:54:49,39.872,-73.105,394.79,-9.00,1012.68,1010.80,15.81,15.57,32.836,1.41,100.54,30.08,1012.68,135.00,22.90,40.00,8.24,382.57,2,-9.00,9,-9.00,0.24,7.62,270.71,11.37,259.62
AOML_Explorer,Ex0745BB,309.373,05112007,8:57:22,39.861,-73.090,393.49,-9.00,1012.75,1010.70,15.98,15.50,32.766,1.41,100.49,30.08,1012.75,134.80,22.80,50.00,8.24,377.35,2,-9.00,9,-9.00,0.25,9.03,270.23,11.42,261.06
AOML_Explorer,Ex0745BB,309.375,05112007,8:59:55,39.850,-73.075,392.74,-9.00,1012.80,1010.90,15.93,15.48,32.781,1.41,100.63,30.08,1012.80,135.30,22.80,33.00,7.72,377.18,2,-9.00,9,-9.00,0.20,6.73,276.30,11.39,260.98
AOML_Explorer,Ex0745BB,309.390,05112007,9:21:40,39.752,-72.950,391.63,-9.00,1012.73,1010.70,15.49,15.07,32.774,1.39,100.39,30.15,1012.73,134.90,23.00,44.00,7.72,376.74,2,-9.00,9,-9.00,0.19,8.23,274.18,11.44,262.90
AOML_Explorer,Ex0745BB,309.392,05112007,9:24:13,39.740,-72.935,391.40,-9.00,1012.85,1010.80,15.51,15.08,32.776,1.39,100.17,30.15,1012.85,134.30,22.90,38.00,7.72,376.44,2,-9.00,9,-9.00,0.18,7.48,274.27,11.51,262.14
AOML_Explorer,Ex0745BB,309.394,05112007,9:26:46,39.729,-72.920,391.16,-9.00,1012.75,1010.90,15.53,14.93,32.801,1.41,100.42,30.16,1012.75,134.10,23.00,45.00,7.21,373.42,2,-9.00,9,-9.00,0.15,8.52,276.79,11.54,263.26
AOML_Explorer,Ex0745BB,309.395,05112007,9:29:19,39.717,-72.905,391.98,-9.00,1012.92,1011.00,15.51,14.83,32.775,1.42,100.15,30.15,1012.92,135.00,23.10,48.00,9.26,373.17,2,-9.00,9,-9.00,0.13,8.97,264.45,11.57,263.46
AOML_Explorer,Ex0745BB,309.397,05112007,9:31:52,39.706,-72.890,392.80,-9.00,1012.92,1011.00,15.41,14.60,32.748,1.40,100.26,30.16,1012.92,134.50,23.10,46.00,7.72,371.99,2,-9.00,9,-9.00,0.10,8.63,274.08,11.59,263.08
AOML_Explorer,Ex0745BB,309.399,05112007,9:34:25,39.694,-72.875,393.87,-9.00,1012.94,1011.00,15.28,14.63,32.727,1.39,100.14,30.16,1012.94,134.40,23.10,46.00,9.78,375.55,2,-9.00,9,-9.00,0.09,8.80,260.35,11.62,262.73
AOML_Explorer,Ex0745BB,309.401,05112007,9:36:58,39.683,-72.860,396.98,-9.00,1013.05,1011.00,15.16,14.71,32.700,1.42,100.62,30.16,1013.05,134.20,23.20,51.00,8.24,381.65,2,-9.00,9,-9.00,0.09,9.39,270.60,11.68,262.96
AOML_Explorer,Ex0745BB,309.402,05112007,9:39:31,39.671,-72.844,399.11,-9.00,1013.09,1010.90,15.14,14.57,32.818,1.43,100.39,30.16,1013.09,134.50,23.10,53.00,8.75,381.80,2,-9.00,9,-9.00,0.10,9.78,268.16,11.72,263.54
AOML_Explorer,Ex0745BB,309.404,05112007,9:42:04,39.660,-72.830,399.17,-9.00,1013.09,1011.20,15.23,14.34,32.651,1.41,100.56,30.16,1013.09,134.30,23.10,48.00,10.29,376.96,2,-9.00,9,-9.00,0.11,9.31,257.80,11.71,264.72
AOML_Explorer,Ex0745BB,309.406,05112007,9:44:37,39.649,-72.814,399.54,-9.00,1013.10,1011.10,15.00,14.49,32.577,1.40,100.46,30.15,1013.10,134.10,23.30,53.00,9.26,383.24,2,-9.00,9,-9.00,0.15,9.95,265.23,11.64,264.65
AOML_Explorer,Ex0745BB,309.408,05112007,9:47:10,39.637,-72.799,401.97,-9.00,1013.12,1011.10,14.93,14.56,32.640,1.40,100.37,30.15,1013.12,134.20,23.20,54.00,10.81,387.94,2,-9.00,9,-9.00,0.18,10.54,257.31,11.76,264.99
AOML_Explorer,Ex0745BB,309.410,05112007,9:49:43,39.626,-72.784,401.74,-9.00,1013.08,1011.10,15.04,14.52,32.647,1.41,100.44,30.15,1013.08,134.30,23.10,56.00,10.81,385.22,2,-9.00,9,-9.00,0.17,10.88,257.83,11.64,265.26
AOML_Explorer,Ex0745BB,309.411,05112007,9:52:16,39.614,-72.769,401.17,-9.00,1013.11,1011.00,15.06,14.47,32.629,1.43,100.38,30.15,1013.11,134.00,23.00,58.00,9.26,383.68,2,-9.00,9,-9.00,0.17,10.61,265.71,11.61,265.43
AOML_Explorer,Ex0745BB,309.413,05112007,9:54:49,39.603,-72.754,400.98,-9.00,1013.03,1011.10,15.02,14.57,32.631,1.43,100.54,30.14,1013.03,134.30,23.10,63.00,10.81,385.57,2,-9.00,9,-9.00,0.15,12.12,260.70,11.61,264.91
AOML_Explorer,Ex0745BB,309.415,05112007,9:57:22,39.592,-72.739,401.46,-9.00,1013.43,1011.20,15.03,14.58,32.641,1.42,100.61,30.14,1013.43,134.20,23.10,58.00,9.78,386.22,2,-9.00,9,-9.00,0.14,10.84,263.58,11.63,263.95
AOML_Explorer,Ex0745BB,309.417,05112007,9:59:55,39.580,-72.724,402.08,-9.00,1013.53,1011.20,15.06,14.56,32.656,1.40,100.40,30.14,1013.53,135.90,23.10,59.00,11.32,386.02,2,-9.00,9,-9.00,0.15,11.68,258.68,11.65,264.28
AOML_Explorer,Ex0745BB,309.432,05112007,10:21:40,39.477,-72.598,410.30,-9.00,1013.80,1011.40,14.74,14.25,32.664,1.41,100.57,30.16,1013.80,137.10,23.70,57.00,11.84,394.37,2,-9.00,9,-9.00,0.18,11.46,257.20,11.45,263.77
AOML_Explorer,Ex0745BB,309.433,05112007,10:24:13,39.465,-72.583,409.52,-9.00,1013.95,1011.50,14.74,14.25,32.757,1.41,100.67,30.16,1013.95,137.80,23.50,61.00,10.81,393.70,2,-9.00,9,-9.00,0.17,11.58,263.71,11.48,262.83
AOML_Explorer,Ex0745BB,309.435,05112007,10:26:46,39.453,-72.569,407.89,-9.00,1013.90,1011.50,14.78,14.41,32.737,1.42,100.62,30.16,1013.90,137.20,23.40,68.00,10.81,393.95,2,-9.00,9,-9.00,0.17,12.68,266.09,11.47,262.38
AOML_Explorer,Ex0745BB,309.437,05112007,10:29:19,39.440,-72.554,406.41,-9.00,1014.02,1011.70,14.79,14.63,32.894,1.44,100.96,30.15,1014.02,137.80,23.40,66.00,11.32,396.04,2,-9.00,9,-9.00,0.17,12.60,263.07,11.55,262.37
AOML_Explorer,Ex0745BB,309.439,05112007,10:31:52,39.428,-72.540,403.68,-9.00,1014.10,1011.80,15.00,14.46,32.974,1.40,100.74,30.15,1014.10,138.00,23.20,71.00,10.29,387.29,2,-9.00,9,-9.00,0.18,12.91,269.23,11.58,261.68
AOML_Explorer,Ex0745BB,309.441,05112007,10:34:25,39.416,-72.526,399.31,-9.00,1014.23,1011.80,15.09,13.98,32.829,1.40,100.69,30.14,1014.23,137.30,23.30,62.00,11.32,374.10,2,-9.00,9,-9.00,0.20,11.93,261.09,11.52,262.75
AOML_Explorer,Ex0745BB,309.442,05112007,10:36:58,39.404,-72.511,399.18,-9.00,1014.19,1011.80,14.79,13.96,32.784,1.40,100.84,30.13,1014.19,136.90,23.40,63.00,10.29,378.47,2,-9.00,9,-9.00,0.20,11.74,265.87,11.47,261.96
AOML_Explorer,Ex0745BB,309.444,05112007,10:39:31,39.392,-72.497,404.40,-9.00,1014.27,1011.90,14.58,13.79,32.792,1.44,100.94,30.13,1014.27,137.30,23.60,50.00,8.75,384.12,2,-9.00,9,-9.00,0.20,9.26,271.75,11.48,261.01
AOML_Explorer,Ex0745BB,309.446,05112007,10:42:04,39.379,-72.482,407.70,-9.00,1014.34,1011.80,14.48,14.81,32.753,1.45,101.07,30.12,1014.34,137.30,23.50,60.00,10.29,405.78,2,-9.00,9,-9.00,0.20,11.26,265.62,11.5,262.11
AOML_Explorer,Ex0745BB,309.448,05112007,10:44:37,39.367,-72.468,411.22,-9.00,1014.37,1011.90,14.61,15.37,33.130,1.44,101.15,30.11,1014.37,136.60,23.20,59.00,11.32,416.54,2,-9.00,9,-9.00,0.21,11.42,259.31,11.6,263.47
AOML_Explorer,Ex0745BB,309.449,05112007,10:47:10,39.355,-72.453,401.36,-9.00,1014.37,1011.80,15.36,15.70,33.305,1.42,101.04,30.10,1014.37,136.50,23.20,65.00,10.81,399.16,2,-9.00,9,-9.00,0.19,12.20,264.01,11.6,262.60
AOML_Explorer,Ex0745BB,309.451,05112007,10:49:43,39.343,-72.439,387.63,-9.00,1014.49,1012.10,15.81,15.89,33.348,1.41,101.33,30.10,1014.49,136.50,23.50,62.00,9.78,381.23,2,-9.00,9,-9.00,0.20,11.33,268.09,11.72,261.97
AOML_Explorer,Ex0745BB,309.453,05112007,10:52:16,39.331,-72.425,377.45,-9.00,1014.55,1012.10,16.04,16.14,33.439,1.40,101.51,30.09,1014.55,136.70,23.10,58.00,8.24,371.47,2,-9.00,9,-9.00,0.20,10.15,274.31,11.7,261.60
AOML_Explorer,Ex0745BB,309.455,05112007,10:54:49,39.319,-72.410,371.16,-9.00,1014.52,1012.10,16.24,15.90,33.550,1.39,101.35,30.09,1014.52,136.70,23.40,53.00,7.21,358.74,2,-9.00,9,-9.00,0.19,9.48,280.33,11.7,261.51
AOML_Explorer,Ex0745BB,309.457,05112007,10:57:22,39.306,-72.396,365.79,-9.00,1014.64,1012.10,16.40,15.84,33.398,1.41,101.09,30.08,1014.64,137.20,23.40,57.00,10.81,350.26,2,-9.00,9,-9.00,0.19,10.93,261.72,11.7,261.45
AOML_Explorer,Ex0745BB,309.458,05112007,10:59:55,39.294,-72.382,364.16,-9.00,1014.59,1012.10,16.23,15.98,33.422,1.41,101.18,30.08,1014.59,136.10,23.50,58.00,9.26,353.29,2,-9.00,9,-9.00,0.21,10.51,268.33,11.7,261.32
AOML_Explorer,Ex0745BB,309.473,05112007,11:21:40,39.193,-72.255,364.22,-9.00,1014.79,1012.30,16.01,15.52,33.487,1.45,101.20,30.10,1014.79,135.40,23.30,76.00,10.29,350.06,2,-9.00,9,-9.00,0.21,13.59,268.53,11.93,261.85
AOML_Explorer,Ex0745BB,309.475,05112007,11:24:13,39.181,-72.240,363.62,-9.00,1014.76,1012.50,15.97,15.23,33.677,1.44,101.47,30.10,1014.76,135.30,23.20,74.00,10.29,345.77,2,-9.00,9,-9.00,0.17,13.28,267.47,11.92,262.29
AOML_Explorer,Ex0745BB,309.477,05112007,11:26:46,39.170,-72.225,363.87,-9.00,1014.88,1012.30,15.96,14.93,33.288,1.42,101.48,30.10,1014.88,136.20,23.10,80.00,7.72,341.98,2,-9.00,9,-9.00,0.18,12.82,279.83,11.94,263.89
AOML_Explorer,Ex0745BB,309.479,05112007,11:29:19,39.158,-72.210,365.78,-9.00,1014.87,1012.10,15.55,14.89,33.223,1.46,101.15,30.09,1014.87,135.00,23.00,75.00,7.72,349.12,2,-9.00,9,-9.00,0.17,12.22,277.51,11.97,264.19
AOML_Explorer,Ex0745BB,309.480,05112007,11:31:52,39.146,-72.196,368.97,-9.00,1014.90,1012.30,15.43,14.94,33.188,1.44,101.45,30.09,1014.90,135.50,23.10,75.00,7.72,354.73,2,-9.00,9,-9.00,0.17,12.20,277.76,11.95,264.06
AOML_Explorer,Ex0745BB,309.482,05112007,11:34:25,39.135,-72.181,371.10,-9.00,1015.02,1012.30,15.41,14.98,33.203,1.44,101.19,30.08,1015.02,134.80,23.30,90.00,8.24,357.76,2,-9.00,9,-9.00,0.17,14.45,279.94,11.96,264.22
AOML_Explorer,Ex0745BB,309.484,05112007,11:36:58,39.123,-72.166,372.75,-9.00,1015.12,1012.40,15.45,15.06,33.206,1.42,101.45,30.08,1015.12,135.10,23.40,85.00,8.24,359.84,2,-9.00,9,-9.00,0.17,13.82,278.75,12.09,264.44
AOML_Explorer,Ex0745BB,309.486,05112007,11:39:31,39.111,-72.151,373.71,-9.00,1014.98,1012.60,15.49,15.03,33.213,1.41,101.81,30.07,1014.98,135.40,23.10,68.00,9.78,359.84,2,-9.00,9,-9.00,0.17,12.14,267.70,12.02,264.66
AOML_Explorer,Ex0745BB,309.488,05112007,11:42:04,39.102,-72.139,374.15,-9.00,1015.00,1012.50,15.52,14.56,33.140,1.47,101.51,30.06,1015.00,-9.00,-9.00,69.00,9.26,352.69,2,-9.00,9,-9.00,0.18,11.95,268.97,11.99,266.26
AOML_Explorer,Ex0745BB,309.489,05112007,11:44:37,39.102,-72.139,375.15,-9.00,1014.94,1012.50,15.31,14.32,33.082,1.45,101.26,30.06,1014.94,-9.00,-9.00,76.00,6.69,353.41,2,-9.00,9,-9.00,0.19,11.98,281.63,12.03,266.62
AOML_Explorer,Ex0745BB,309.491,05112007,11:47:10,39.102,-72.139,377.46,-9.00,1015.12,1012.60,15.06,14.07,33.038,1.47,101.54,30.05,1015.12,-9.00,-9.00,77.00,8.24,355.68,2,-9.00,9,-9.00,0.19,12.58,275.34,12.02,267.62
AOML_Explorer,Ex0745BB,309.493,05112007,11:49:43,39.102,-72.139,379.12,-9.00,1015.14,1012.70,14.83,14.06,32.992,1.45,101.27,30.05,1015.14,-9.00,-9.00,65.00,7.21,360.58,2,-9.00,9,-9.00,0.19,10.67,276.72,12.06,267.15
AOML_Explorer,Ex0745BB,309.495,05112007,11:52:16,39.102,-72.139,380.24,-9.00,1015.22,1012.50,14.68,14.22,32.961,1.45,101.39,30.05,1015.22,-9.00,-9.00,71.00,8.24,366.45,2,-9.00,9,-9.00,0.17,11.80,273.17,12.12,266.75
AOML_Explorer,Ex0745BB,309.496,05112007,11:54:49,39.102,-72.139,381.11,-9.00,1015.23,1012.80,14.66,14.08,33.127,1.40,101.31,30.04,1015.23,-9.00,-9.00,73.00,9.26,365.41,2,-9.00,9,-9.00,0.19,12.50,269.57,12.13,266.84
AOML_Explorer,Ex0745BB,309.498,05112007,11:57:22,39.102,-72.139,380.69,-9.00,1015.37,1012.70,14.80,13.96,33.015,1.39,101.59,30.04,1015.37,-9.00,-9.00,83.00,7.21,361.27,2,-9.00,9,-9.00,0.19,12.90,280.62,12.14,267.49
AOML_Explorer,Ex0745BB,309.500,05112007,11:59:55,39.021,-72.031,381.50,-9.00,1015.43,1012.80,14.65,14.07,32.924,1.43,101.27,30.03,1015.43,133.60,23.00,77.00,5.66,365.93,2,-9.00,9,-9.00,0.19,11.84,285.84,12.23,267.39
AOML_Explorer,Ex0745BB,309.515,05112007,12:21:40,38.922,-71.903,378.52,-9.00,1015.62,1013.30,15.06,14.85,33.051,1.44,101.73,30.07,1015.62,134.60,23.40,69.00,7.72,368.58,2,-9.00,9,-9.00,0.15,11.60,276.60,12.47,266.83
AOML_Explorer,Ex0745BB,309.517,05112007,12:24:13,38.910,-71.888,377.35,-9.00,1015.86,1013.40,15.22,14.81,33.108,1.43,101.62,30.07,1015.86,135.10,23.60,59.00,8.24,364.41,2,-9.00,9,-9.00,0.15,10.42,273.15,12.42,266.61
AOML_Explorer,Ex0745BB,309.519,05112007,12:26:46,38.898,-71.873,375.93,-9.00,1016.00,1013.40,15.32,14.82,33.083,1.43,101.53,30.07,1016.00,134.60,23.50,70.00,8.24,361.66,2,-9.00,9,-9.00,0.16,11.96,274.59,12.53,266.88
AOML_Explorer,Ex0745BB,309.520,05112007,12:29:19,38.886,-71.858,375.79,-9.00,1016.07,1013.60,15.32,14.80,33.063,1.41,101.50,30.07,1016.07,135.10,23.60,59.00,8.75,361.31,2,-9.00,9,-9.00,0.16,10.62,270.68,12.54,267.44
AOML_Explorer,Ex0745BB,309.522,05112007,12:31:52,38.874,-71.843,375.37,-9.00,1016.08,1013.50,15.31,14.84,33.059,1.45,101.46,30.07,1016.08,134.70,23.60,64.00,7.21,361.72,2,-9.00,9,-9.00,0.16,10.99,278.87,12.62,267.03
AOML_Explorer,Ex0745BB,309.524,05112007,12:34:25,38.863,-71.828,375.04,-9.00,1016.10,1013.50,15.31,14.85,33.082,1.42,101.52,30.07,1016.10,134.50,23.50,77.00,7.72,361.40,2,-9.00,9,-9.00,0.16,12.74,278.69,12.61,266.82
AOML_Explorer,Ex0745BB,309.526,05112007,12:36:58,38.851,-71.813,374.97,-9.00,1016.24,1013.60,15.35,14.74,33.068,1.43,101.41,30.07,1016.24,135.30,23.60,65.00,7.21,359.34,2,-9.00,9,-9.00,0.15,11.09,279.53,12.59,266.93
AOML_Explorer,Ex0745BB,309.527,05112007,12:39:31,38.839,-71.798,375.59,-9.00,1016.33,1013.70,15.31,14.69,33.047,1.45,101.28,30.07,1016.33,134.70,23.50,69.00,7.72,359.67,2,-9.00,9,-9.00,0.16,11.73,277.13,12.7,267.75
AOML_Explorer,Ex0745BB,309.529,05112007,12:42:04,38.827,-71.782,377.10,-9.00,1016.37,1013.70,15.25,14.68,33.046,1.41,101.47,30.07,1016.37,134.70,23.60,63.00,8.75,361.97,2,-9.00,9,-9.00,0.15,11.20,271.18,12.72,267.72
AOML_Explorer,Ex0745BB,309.531,05112007,12:44:37,38.815,-71.767,377.82,-9.00,1016.14,1013.70,15.22,14.66,33.058,1.45,101.49,30.07,1016.14,135.70,23.60,70.00,7.72,362.78,2,-9.00,9,-9.00,0.16,11.91,278.30,12.7,267.91
AOML_Explorer,Ex0745BB,309.533,05112007,12:47:10,38.803,-71.753,377.91,-9.00,1016.21,1013.60,15.21,14.66,33.051,1.42,101.39,30.07,1016.21,136.00,23.60,71.00,8.24,362.92,2,-9.00,9,-9.00,1.95,12.14,276.57,12.77,267.86
AOML_Explorer,Ex0745BB,309.535,05112007,12:49:43,38.791,-71.738,377.58,-9.00,1016.33,1013.50,15.19,14.62,33.071,1.42,101.53,30.07,1016.33,135.90,23.50,76.00,7.72,362.47,2,-9.00,9,-9.00,0.14,12.55,279.69,12.77,267.95
AOML_Explorer,Ex0745BB,309.536,05112007,12:52:16,38.779,-71.723,376.75,-9.00,1016.27,1013.70,15.19,14.62,33.078,1.43,101.53,30.07,1016.27,135.80,23.60,83.00,7.72,361.57,2,-9.00,9,-9.00,0.14,13.50,281.41,12.75,267.98
AOML_Explorer,Ex0745BB,309.538,05112007,12:54:49,38.767,-71.708,375.87,-9.00,1016.27,1013.80,15.18,14.52,33.063,1.38,101.57,30.07,1016.27,135.80,23.70,63.00,6.69,359.38,2,-9.00,9,-9.00,0.15,10.82,282.74,12.8,268.37
AOML_Explorer,Ex0745BB,309.540,05112007,12:57:22,38.755,-71.693,375.29,-9.00,1016.28,1013.70,15.14,14.45,33.015,1.42,101.59,30.07,1016.28,136.30,23.70,70.00,7.72,358.47,2,-9.00,9,-9.00,0.14,11.82,278.98,12.86,268.36
AOML_Explorer,Ex0745BB,309.542,05112007,12:59:55,38.743,-71.678,375.18,-9.00,1016.09,1013.90,15.06,14.59,33.013,1.42,101.51,30.07,1016.09,136.40,23.80,75.00,8.75,361.62,2,-9.00,9,-9.00,0.15,12.91,275.82,12.84,267.40
AOML_Explorer,Ex0745BB,309.557,05112007,13:21:40,38.637,-71.558,378.43,-9.00,1016.49,1013.80,15.37,14.93,33.089,1.41,101.39,30.17,1016.49,139.00,23.30,82.00,6.69,365.10,2,-9.00,9,-9.00,0.13,12.64,287.85,13.07,265.82
AOML_Explorer,Ex0745BB,309.558,05112007,13:24:13,38.624,-71.544,379.90,-9.00,1016.43,1013.80,15.41,14.82,33.113,1.41,101.53,30.18,1016.43,138.70,23.30,65.00,5.66,364.26,2,-9.00,9,-9.00,0.14,10.70,290.71,13.17,266.00
AOML_Explorer,Ex0745BB,309.560,05112007,13:26:46,38.612,-71.529,380.75,-9.00,1016.43,1013.70,15.42,14.61,33.077,1.42,101.32,30.19,1016.43,136.60,23.30,75.00,8.75,361.82,2,-9.00,9,-9.00,0.13,12.60,275.34,13.22,266.68
AOML_Explorer,Ex0745BB,309.562,05112007,13:29:19,38.600,-71.515,381.66,-9.00,1016.59,1013.90,15.33,14.53,32.995,1.41,101.39,30.19,1016.59,137.60,23.30,65.00,8.75,362.99,2,-9.00,9,-9.00,0.15,11.13,273.48,13.09,266.50
AOML_Explorer,Ex0745BB,309.564,05112007,13:31:52,38.588,-71.501,383.17,-9.00,1016.64,1013.80,15.15,14.51,33.040,1.43,101.24,30.19,1016.64,137.40,23.40,75.00,6.18,366.80,2,-9.00,9,-9.00,0.15,11.78,287.56,13.14,266.87
AOML_Explorer,Ex0745BB,309.566,05112007,13:34:25,38.575,-71.487,384.59,-9.00,1016.54,1013.90,15.10,14.37,33.086,1.43,101.39,30.19,1016.54,137.50,23.40,53.00,5.66,366.91,2,-9.00,9,-9.00,0.15,9.52,290.48,13.2,267.11
AOML_Explorer,Ex0745BB,309.567,05112007,13:36:58,38.563,-71.472,384.42,-9.00,1016.70,1013.90,15.05,14.30,33.105,1.45,101.19,30.20,1016.70,137.70,23.60,76.00,6.69,366.53,2,-9.00,9,-9.00,0.14,12.02,285.80,13.19,266.71
AOML_Explorer,Ex0745BB,309.569,05112007,13:39:31,38.551,-71.458,384.58,-9.00,1016.70,1014.10,14.94,14.32,33.181,1.44,101.40,30.20,1016.70,137.40,23.50,69.00,8.24,368.64,2,-9.00,9,-9.00,0.14,11.61,277.33,13.16,265.41
AOML_Explorer,Ex0745BB,309.571,05112007,13:42:04,38.538,-71.444,385.03,-9.00,1016.78,1014.10,14.90,14.39,33.290,1.45,101.48,30.21,1016.78,137.20,23.50,65.00,7.21,370.80,2,-9.00,9,-9.00,0.14,10.80,281.61,13.23,264.57
AOML_Explorer,Ex0745BB,309.573,05112007,13:44:37,38.526,-71.429,385.30,-9.00,1016.84,1014.00,14.92,14.61,33.406,1.40,101.48,30.21,1016.84,137.30,23.40,73.00,6.18,374.13,2,-9.00,9,-9.00,0.15,11.54,287.53,13.27,263.27
AOML_Explorer,Ex0745BB,309.574,05112007,13:47:10,38.514,-71.415,384.90,-9.00,1016.89,1014.30,15.03,14.44,33.475,1.43,101.40,30.21,1016.89,137.40,23.30,58.00,7.21,369.40,2,-9.00,9,-9.00,0.14,9.87,281.14,13.33,263.55
AOML_Explorer,Ex0745BB,309.576,05112007,13:49:43,38.502,-71.401,383.34,-9.00,1016.95,1014.20,15.08,14.86,33.473,1.41,101.41,30.21,1016.95,137.30,23.40,66.00,9.26,373.58,2,-9.00,9,-9.00,0.13,11.44,271.20,13.26,261.99
AOML_Explorer,Ex0745BB,309.582,05112007,13:57:22,38.465,-71.358,367.74,-9.00,1017.08,1014.60,16.73,16.87,34.271,1.41,101.38,30.21,1017.08,136.90,23.20,57.00,8.24,363.27,2,-9.00,9,-9.00,0.11,9.86,274.15,13.44,253.79
AOML_Explorer,Ex0745BB,309.583,05112007,13:59:55,38.453,-71.344,359.38,-9.00,1017.12,1014.60,16.92,17.37,34.339,1.41,101.57,30.21,1017.12,137.30,23.10,62.00,7.21,359.46,2,-9.00,9,-9.00,0.10,10.35,280.65,13.37,251.82
AOML_Explorer,Ex0745BB,309.598,05112007,14:21:40,38.352,-71.223,346.26,-9.00,1017.29,1014.70,18.68,18.71,34.849,1.40,101.38,30.27,1017.29,135.90,23.00,53.00,5.66,339.60,2,-9.00,9,-9.00,0.11,9.28,288.10,13.91,246.20
AOML_Explorer,Ex0745BB,309.600,05112007,14:24:13,38.340,-71.208,347.12,-9.00,1017.26,1014.70,18.74,18.68,34.886,1.42,101.66,30.27,1017.26,135.30,23.10,48.00,5.15,339.28,2,-9.00,9,-9.00,0.11,9.01,291.35,13.99,245.66
AOML_Explorer,Ex0745BB,309.602,05112007,14:26:46,38.329,-71.194,347.95,-9.00,1017.38,1014.80,18.83,18.67,34.876,1.39,101.53,30.27,1017.38,135.70,23.10,40.00,6.18,338.66,2,-9.00,9,-9.00,0.12,7.88,287.75,14.09,245.37
AOML_Explorer,Ex0745BB,309.604,05112007,14:29:19,38.317,-71.179,348.96,-9.00,1017.42,1014.80,18.82,18.45,34.912,1.40,101.70,30.27,1017.42,135.70,23.20,61.00,6.18,336.77,2,-9.00,9,-9.00,0.12,10.09,284.65,13.98,245.81
AOML_Explorer,Ex0745BB,309.605,05112007,14:31:52,38.305,-71.164,349.76,-9.00,1017.45,1014.80,18.80,18.23,34.733,1.40,101.32,30.27,1017.45,135.50,23.10,59.00,6.18,334.72,2,-9.00,9,-9.00,0.12,9.85,284.22,14.08,246.34